| time (UTC) | temp C | wind direction | speed KPH | gust KPH | rain 1hr cm | rain 24hr cm | rain mn cm | humidity % | barometer mb |
| 20260902175505 | 30 | 164 | 1.6 | 8.0 | 0.00 | 0.89 | 0.86 | 62 | 1009.2 |
| 20260902175006 | 30 | 169 | 1.6 | 8.0 | 0.00 | 0.89 | 0.86 | 63 | 1009.4 |
| 20260902173006 | 28 | 175 | 1.6 | 8.0 | 0.00 | 0.89 | 0.86 | 70 | 1009.5 |
| 20260902172505 | 28 | 163 | 1.6 | 8.0 | 0.00 | 0.89 | 0.86 | 69 | 1009.5 |
| 20260902172006 | 28 | 168 | 3.2 | 11.3 | 0.00 | 0.89 | 0.86 | 70 | 1009.7 |
| 20260902171505 | 28 | 149 | 1.6 | 8.0 | 0.00 | 0.89 | 0.86 | 71 | 1009.7 |
| 20260902170506 | 27 | 175 | 4.8 | 8.0 | 0.00 | 0.89 | 0.86 | 69 | 1009.7 |
| 20260902170006 | 27 | 173 | 4.8 | 9.7 | 0.00 | 0.89 | 0.86 | 71 | 1009.8 |
| 20260902165505 | 27 | 167 | 4.8 | 9.7 | 0.00 | 0.89 | 0.86 | 70 | 1009.7 |
| 20260902165005 | 27 | 164 | 3.2 | 9.7 | 0.00 | 0.89 | 0.86 | 71 | 1009.7 |
| 20260902164505 | 27 | 159 | 3.2 | 8.0 | 0.00 | 0.89 | 0.86 | 71 | 1009.6 |
| 20260902164006 | 27 | 171 | 3.2 | 8.0 | 0.00 | 0.89 | 0.86 | 73 | 1009.6 |
| 20260902163505 | 26 | 173 | 3.2 | 8.0 | 0.00 | 0.89 | 0.86 | 74 | 1009.5 |
| 20260902163005 | 26 | 173 | 3.2 | 8.0 | 0.00 | 0.89 | 0.86 | 75 | 1009.5 |
| 20260902162006 | 25 | 171 | 1.6 | 8.0 | 0.00 | 0.89 | 0.86 | 77 | 1009.5 |
| 20260902161006 | 25 | 160 | 3.2 | 8.0 | 0.00 | 0.89 | 0.86 | 79 | 1009.6 |
| 20260902160506 | 25 | 187 | 3.2 | 8.0 | 0.00 | 0.89 | 0.86 | 79 | 1009.6 |
| 20260902160008 | 25 | 170 | 3.2 | 8.0 | 0.00 | 0.89 | 0.86 | 79 | 1009.6 |
| 20260902155505 | 24 | 139 | 3.2 | 11.3 | 0.00 | 0.89 | 0.86 | 81 | 1009.7 |
| 20260902155005 | 23 | 171 | 3.2 | 11.3 | 0.00 | 0.89 | 0.86 | 82 | 1009.7 |
| 20260902154006 | 23 | 171 | 3.2 | 11.3 | 0.00 | 0.89 | 0.86 | 85 | 1009.5 |
| 20260902153505 | 23 | 167 | 3.2 | 9.7 | 0.00 | 0.89 | 0.86 | 88 | 1009.5 |
| 20260902153006 | 22 | 166 | 4.8 | 9.7 | 0.00 | 0.89 | 0.86 | 90 | 1009.6 |
| 20260902152506 | 22 | 169 | 4.8 | 9.7 | 0.00 | 0.89 | 0.86 | 90 | 1009.5 |
| 20260902152006 | 22 | 164 | 4.8 | 8.0 | 0.00 | 0.89 | 0.86 | 92 | 1009.5 |
| 20260902151505 | 21 | 173 | 3.2 | 9.7 | 0.00 | 0.89 | 0.86 | 92 | 1009.5 |
| 20260902151005 | 21 | 177 | 3.2 | 12.9 | 0.00 | 0.89 | 0.86 | 92 | 1009.5 |
| 20260902150505 | 21 | 171 | 4.8 | 12.9 | 0.00 | 0.89 | 0.86 | 92 | 1009.4 |
| 20260902150006 | 21 | 161 | 3.2 | 9.7 | 0.00 | 0.89 | 0.86 | 92 | 1009.5 |
| 20260902145505 | 21 | 173 | 3.2 | 9.7 | 0.00 | 0.89 | 0.86 | 93 | 1009.5 |
| 20260902144505 | 20 | 156 | 4.8 | 9.7 | 0.00 | 0.89 | 0.86 | 93 | 1009.5 |
| 20260902143505 | 20 | 163 | 1.6 | 9.7 | 0.00 | 0.89 | 0.86 | 92 | 1009.7 |
| 20260902143006 | 20 | 165 | 1.6 | 8.0 | 0.00 | 0.89 | 0.86 | 93 | 1009.7 |
| 20260902142505 | 20 | 162 | 3.2 | 8.0 | 0.00 | 0.89 | 0.86 | 92 | 1009.8 |
| 20260902141505 | 20 | 151 | 3.2 | 8.0 | 0.00 | 0.89 | 0.86 | 92 | 1009.7 |
| 20260902141005 | 20 | 113 | 1.6 | 3.2 | 0.00 | 0.89 | 0.86 | 93 | 1009.9 |
| 20260902140505 | 19 | 113 | 0.0 | 4.8 | 0.00 | 0.89 | 0.86 | 93 | 1010.0 |
| 20260902140005 | 19 | 113 | 3.2 | 9.7 | 0.00 | 0.89 | 0.86 | 93 | 1009.9 |
| 20260902135505 | 19 | 145 | 1.6 | 9.7 | 0.00 | 0.89 | 0.86 | 93 | 1009.9 |
| 20260902135006 | 19 | 161 | 1.6 | 4.8 | 0.00 | 0.89 | 0.86 | 93 | 1010.0 |
| 20260902134006 | 19 | 173 | 3.2 | 8.0 | 0.00 | 0.89 | 0.86 | 93 | 1010.1 |
| 20260902133505 | 18 | 174 | 1.6 | 4.8 | 0.00 | 0.89 | 0.86 | 93 | 1010.1 |
| 20260902133006 | 18 | 185 | 0.0 | 1.6 | 0.00 | 0.89 | 0.86 | 93 | 1009.9 |
| 20260902132505 | 18 | 185 | 1.6 | 4.8 | 0.00 | 0.89 | 0.86 | 93 | 1009.8 |
| 20260902132005 | 18 | 25 | 1.6 | 8.0 | 0.00 | 0.89 | 0.86 | 93 | 1009.7 |
| 20260902131505 | 18 | 54 | 1.6 | 8.0 | 0.00 | 0.89 | 0.86 | 93 | 1010.0 |
| 20260902131006 | 18 | 179 | 0.0 | 4.8 | 0.00 | 0.89 | 0.86 | 93 | 1010.3 |
| 20260902130505 | 18 | 39 | 0.0 | 1.6 | 0.00 | 0.89 | 0.86 | 93 | 1010.3 |
| 20260902130005 | 18 | 38 | 0.0 | 3.2 | 0.00 | 0.89 | 0.86 | 93 | 1010.2 |
| 20260902125511 | 17 | 38 | 0.0 | 1.6 | 0.00 | 0.89 | 0.86 | 93 | 1010.1 |
| 20260902125006 | 17 | 38 | 0.0 | 0.0 | 0.00 | 0.89 | 0.86 | 93 | 1010.4 |
| 20260902124505 | 17 | 38 | 0.0 | 0.0 | 0.00 | 0.89 | 0.86 | 93 | 1010.7 |
| 20260902124005 | 17 | 38 | 0.0 | 0.0 | 0.00 | 0.89 | 0.86 | 93 | 1010.5 |
| 20260902123006 | 17 | 38 | 0.0 | 0.0 | 0.00 | 0.89 | 0.86 | 93 | 1010.5 |
| 20260902122505 | 17 | 38 | 0.0 | 0.0 | 0.00 | 0.89 | 0.86 | 92 | 1010.4 |
| 20260902122005 | 17 | 38 | 0.0 | 0.0 | 0.00 | 0.89 | 0.86 | 92 | 1009.8 |
| 20260902121505 | 17 | 38 | 0.0 | 0.0 | 0.00 | 0.89 | 0.86 | 93 | 1009.7 |
| 20260902120505 | 17 | 38 | 0.0 | 1.6 | 0.00 | 0.89 | 0.86 | 93 | 1009.4 |
| 20260902120005 | 17 | 38 | 0.0 | 0.0 | 0.00 | 0.89 | 0.86 | 93 | 1009.0 |
| 20260902115505 | 17 | 38 | 0.0 | 0.0 | 0.00 | 0.89 | 0.86 | 92 | 1009.2 |
| 20260902115006 | 17 | 38 | 0.0 | 1.6 | 0.00 | 0.89 | 0.86 | 92 | 1009.3 |
| 20260902114505 | 17 | 38 | 0.0 | 1.6 | 0.00 | 0.89 | 0.86 | 92 | 1009.5 |
| 20260902113505 | 17 | 38 | 0.0 | 1.6 | 0.00 | 0.89 | 0.86 | 92 | 1009.6 |
| 20260902113005 | 17 | 38 | 1.6 | 4.8 | 0.00 | 0.89 | 0.86 | 92 | 1009.6 |
| 20260902112505 | 17 | 40 | 0.0 | 3.2 | 0.00 | 0.89 | 0.86 | 92 | 1009.6 |
| 20260902112006 | 17 | 40 | 1.6 | 4.8 | 0.00 | 0.89 | 0.86 | 92 | 1009.4 |
| 20260902111506 | 17 | 348 | 1.6 | 4.8 | 0.00 | 0.89 | 0.86 | 92 | 1009.4 |
| 20260902111006 | 17 | 339 | 1.6 | 4.8 | 0.03 | 0.89 | 0.86 | 92 | 1009.7 |
| 20260902110505 | 17 | 355 | 1.6 | 4.8 | 0.08 | 0.89 | 0.86 | 92 | 1009.9 |
| 20260902105005 | 17 | 140 | 0.0 | 0.0 | 0.08 | 0.89 | 0.86 | 92 | 1010.8 |
| 20260902104506 | 17 | 140 | 0.0 | 0.0 | 0.08 | 0.89 | 0.86 | 92 | 1011.2 |
| 20260902104006 | 17 | 140 | 0.0 | 3.2 | 0.08 | 0.89 | 0.86 | 92 | 1011.4 |
| 20260902103505 | 17 | 140 | 1.6 | 3.2 | 0.08 | 0.89 | 0.86 | 92 | 1010.7 |
| 20260902102505 | 17 | 140 | 1.6 | 4.8 | 0.08 | 0.89 | 0.86 | 92 | 1011.4 |
| 20260902102005 | 17 | 140 | 3.2 | 8.0 | 0.08 | 0.89 | 0.86 | 92 | 1011.7 |
| 20260902101505 | 17 | 162 | 6.4 | 9.7 | 0.08 | 0.89 | 0.86 | 92 | 1011.6 |
| 20260902101006 | 17 | 164 | 3.2 | 14.5 | 0.05 | 0.86 | 0.84 | 92 | 1011.3 |
| 20260902100505 | 17 | 175 | 9.7 | 14.5 | 0.00 | 0.81 | 0.79 | 92 | 1012.3 |
| 20260902100005 | 17 | 162 | 3.2 | 8.0 | 0.00 | 0.81 | 0.79 | 92 | 1010.7 |
| 20260902095506 | 17 | 171 | 1.6 | 4.8 | 0.00 | 0.81 | 0.79 | 92 | 1010.5 |
| 20260902095005 | 17 | 33 | 1.6 | 3.2 | 0.00 | 0.81 | 0.79 | 92 | 1010.5 |
| 20260902094505 | 17 | 33 | 0.0 | 3.2 | 0.00 | 0.81 | 0.79 | 92 | 1010.4 |
| 20260902094006 | 17 | 33 | 0.0 | 3.2 | 0.00 | 0.81 | 0.79 | 92 | 1010.2 |
| 20260902093505 | 17 | 33 | 0.0 | 3.2 | 0.00 | 0.81 | 0.79 | 92 | 1009.8 |
| 20260902093005 | 17 | 33 | 1.6 | 3.2 | 0.00 | 0.81 | 0.79 | 92 | 1009.4 |
| 20260902092505 | 17 | 33 | 0.0 | 1.6 | 0.00 | 0.81 | 0.79 | 92 | 1009.5 |
| 20260902092006 | 17 | 33 | 0.0 | 3.2 | 0.00 | 0.81 | 0.79 | 92 | 1009.8 |
| 20260902091007 | 17 | 7 | 1.6 | 4.8 | 0.00 | 0.81 | 0.79 | 92 | 1009.7 |
| 20260902090506 | 17 | 5 | 0.0 | 3.2 | 0.00 | 0.81 | 0.79 | 92 | 1009.8 |
| 20260902090006 | 17 | 14 | 0.0 | 3.2 | 0.00 | 0.81 | 0.79 | 92 | 1009.9 |
| 20260902085006 | 17 | 40 | 1.6 | 4.8 | 0.00 | 0.81 | 0.79 | 92 | 1009.8 |
| 20260902084507 | 17 | 163 | 0.0 | 3.2 | 0.00 | 0.81 | 0.79 | 92 | 1009.7 |
| 20260902084006 | 18 | 163 | 1.6 | 8.0 | 0.00 | 0.81 | 0.79 | 92 | 1009.8 |
| 20260902083506 | 18 | 163 | 0.0 | 1.6 | 0.00 | 0.81 | 0.79 | 92 | 1009.6 |
| 20260902083006 | 18 | 163 | 0.0 | 1.6 | 0.00 | 0.81 | 0.79 | 92 | 1009.7 |
| 20260902082506 | 18 | 163 | 0.0 | 1.6 | 0.00 | 0.81 | 0.79 | 92 | 1009.6 |
| 20260902082007 | 18 | 163 | 0.0 | 1.6 | 0.00 | 0.81 | 0.79 | 92 | 1009.9 |
| 20260902081506 | 18 | 163 | 0.0 | 3.2 | 0.00 | 0.81 | 0.79 | 92 | 1009.9 |
| 20260902081007 | 18 | 163 | 0.0 | 0.0 | 0.00 | 0.81 | 0.79 | 92 | 1010.0 |
| 20260902080506 | 18 | 163 | 0.0 | 4.8 | 0.00 | 0.81 | 0.79 | 92 | 1009.9 |
| 20260902080006 | 18 | 3 | 1.6 | 4.8 | 0.03 | 0.81 | 0.79 | 92 | 1009.7 |
| 20260902075506 | 18 | 4 | 1.6 | 9.7 | 0.05 | 0.81 | 0.79 | 92 | 1009.7 |
| 20260902075006 | 18 | 340 | 1.6 | 4.8 | 0.05 | 0.81 | 0.79 | 92 | 1009.7 |
| 20260902074507 | 18 | 72 | 4.8 | 9.7 | 0.08 | 0.81 | 0.79 | 92 | 1009.7 |
| 20260902074007 | 18 | 93 | 1.6 | 8.0 | 0.15 | 0.81 | 0.79 | 92 | 1009.9 |
| 20260902073506 | 18 | 27 | 1.6 | 4.8 | 0.53 | 0.81 | 0.79 | 92 | 1009.7 |
| 20260902072506 | 18 | 341 | 3.2 | 8.0 | 0.79 | 0.81 | 0.79 | 92 | 1010.1 |
| 20260902072007 | 18 | 70 | 1.6 | 9.7 | 0.79 | 0.81 | 0.79 | 92 | 1010.2 |
| 20260902070507 | 18 | 29 | 1.6 | 4.8 | 0.79 | 0.81 | 0.79 | 91 | 1010.3 |
| 20260902070007 | 18 | 43 | 1.6 | 8.0 | 0.76 | 0.79 | 0.76 | 91 | 1010.7 |
| 20260902065506 | 18 | 277 | 4.8 | 11.3 | 0.74 | 0.76 | 0.74 | 90 | 1012.0 |
| 20260902064506 | 19 | 286 | 3.2 | 19.3 | 0.71 | 0.74 | 0.71 | 90 | 1012.3 |
| 20260902064006 | 20 | 271 | 11.3 | 24.1 | 0.64 | 0.66 | 0.64 | 88 | 1013.0 |
| 20260902063506 | 21 | 237 | 12.9 | 41.8 | 0.25 | 0.28 | 0.25 | 87 | 1012.6 |
| 20260902063007 | 22 | 243 | 8.0 | 25.7 | 0.00 | 0.03 | 0.00 | 88 | 1010.1 |
| 20260902062507 | 22 | 243 | 3.2 | 11.3 | 0.00 | 0.03 | 0.00 | 89 | 1008.5 |
| 20260902061506 | 22 | 335 | 3.2 | 4.8 | 0.00 | 0.03 | 0.00 | 89 | 1007.9 |
| 20260902061006 | 22 | 21 | 1.6 | 4.8 | 0.00 | 0.03 | 0.00 | 90 | 1008.6 |
| 20260902060506 | 22 | 17 | 1.6 | 4.8 | 0.00 | 0.03 | 0.00 | 90 | 1008.5 |
| 20260902060006 | 22 | 17 | 1.6 | 3.2 | 0.00 | 0.03 | 0.00 | 90 | 1008.8 |
| 20260902055506 | 22 | 17 | 1.6 | 3.2 | 0.00 | 0.03 | 0.00 | 90 | 1009.1 |
| 20260902055007 | 22 | 18 | 0.0 | 1.6 | 0.00 | 0.03 | 0.00 | 90 | 1008.9 |
| 20260902054506 | 22 | 18 | 0.0 | 3.2 | 0.03 | 0.03 | 0.00 | 90 | 1008.8 |
| 20260902054007 | 22 | 18 | 1.6 | 3.2 | 0.00 | 0.03 | 0.00 | 90 | 1008.7 |
| 20260902053507 | 22 | 18 | 1.6 | 3.2 | 0.00 | 0.03 | 0.00 | 90 | 1008.6 |
| 20260902052506 | 22 | 19 | 1.6 | 4.8 | 0.00 | 0.03 | 0.00 | 89 | 1009.0 |
| 20260902052006 | 22 | 63 | 0.0 | 1.6 | 0.00 | 0.03 | 0.00 | 89 | 1009.1 |
| 20260902051506 | 22 | 63 | 0.0 | 0.0 | 0.00 | 0.03 | 0.00 | 89 | 1009.2 |
| 20260902051007 | 22 | 63 | 0.0 | 0.0 | 0.00 | 0.03 | 0.00 | 89 | 1009.0 |
| 20260902050506 | 22 | 63 | 1.6 | 3.2 | 0.00 | 0.03 | 0.00 | 89 | 1009.1 |
| 20260902050008 | 22 | 63 | 0.0 | 0.0 | 0.00 | 0.03 | 0.00 | 89 | 1009.5 |
| 20260902045006 | 22 | 63 | 0.0 | 1.6 | 0.03 | 0.03 | 0.03 | 89 | 1009.5 |
| 20260902044506 | 22 | 63 | 0.0 | 1.6 | 0.03 | 0.03 | 0.03 | 88 | 1009.3 |
| 20260902044006 | 22 | 63 | 0.0 | 0.0 | 0.00 | 0.00 | 0.00 | 88 | 1009.6 |
| 20260902043506 | 22 | 63 | 0.0 | 1.6 | 0.00 | 0.00 | 0.00 | 88 | 1009.6 |
| 20260902042506 | 22 | 63 | 0.0 | 0.0 | 0.00 | 0.00 | 0.00 | 88 | 1009.6 |
| 20260902041506 | 22 | 63 | 0.0 | 0.0 | 0.00 | 0.00 | 0.00 | 88 | 1009.4 |
| 20260902041006 | 22 | 63 | 0.0 | 0.0 | 0.00 | 0.00 | 0.00 | 88 | 1009.2 |
| 20260902040506 | 22 | 63 | 0.0 | 0.0 | 0.00 | 0.00 | 0.00 | 87 | 1009.2 |
| 20260902040006 | 22 | 63 | 0.0 | 0.0 | 0.00 | 0.00 | 0.00 | 87 | 1009.2 |
| 20260902035506 | 22 | 63 | 0.0 | 0.0 | 0.00 | 0.00 | 0.00 | 87 | 1009.2 |
| 20260902035006 | 22 | 63 | 0.0 | 3.2 | 0.00 | 0.00 | 0.00 | 87 | 1009.2 |
| 20260902034507 | 22 | 63 | 0.0 | 3.2 | 0.00 | 0.00 | 0.00 | 87 | 1009.3 |
| 20260902034007 | 22 | 63 | 0.0 | 1.6 | 0.00 | 0.00 | 0.00 | 87 | 1009.5 |
| 20260902033506 | 22 | 63 | 0.0 | 0.0 | 0.00 | 0.00 | 0.00 | 87 | 1009.7 |
| 20260902033006 | 23 | 63 | 0.0 | 0.0 | 0.00 | 0.00 | 0.00 | 86 | 1009.8 |
| 20260902032506 | 23 | 63 | 0.0 | 0.0 | 0.00 | 0.00 | 0.00 | 86 | 1009.8 |
| 20260902032006 | 23 | 63 | 0.0 | 0.0 | 0.00 | 0.00 | 0.00 | 85 | 1009.8 |
| 20260902031506 | 23 | 63 | 0.0 | 0.0 | 0.00 | 0.00 | 0.00 | 86 | 1009.7 |
| 20260902031006 | 23 | 63 | 0.0 | 0.0 | 0.00 | 0.00 | 0.00 | 85 | 1009.8 |
| 20260902030506 | 23 | 63 | 0.0 | 0.0 | 0.00 | 0.00 | 0.00 | 85 | 1009.8 |
| 20260902030006 | 23 | 63 | 0.0 | 0.0 | 0.00 | 0.00 | 0.00 | 85 | 1009.8 |
| 20260902025506 | 23 | 63 | 0.0 | 0.0 | 0.00 | 0.00 | 0.00 | 85 | 1009.9 |
| 20260902025006 | 23 | 63 | 0.0 | 0.0 | 0.00 | 0.00 | 0.00 | 85 | 1009.8 |
| 20260902024506 | 23 | 63 | 0.0 | 0.0 | 0.00 | 0.00 | 0.00 | 85 | 1009.8 |
| 20260902023506 | 23 | 63 | 0.0 | 0.0 | 0.00 | 0.00 | 0.00 | 85 | 1010.0 |
| 20260902023007 | 23 | 63 | 0.0 | 0.0 | 0.00 | 0.00 | 0.00 | 85 | 1009.9 |
| 20260902022506 | 23 | 63 | 0.0 | 1.6 | 0.00 | 0.00 | 0.00 | 84 | 1009.8 |
| 20260902022006 | 23 | 63 | 0.0 | 0.0 | 0.00 | 0.00 | 0.00 | 84 | 1009.8 |
| 20260902021506 | 23 | 63 | 0.0 | 0.0 | 0.00 | 0.00 | 0.00 | 84 | 1009.8 |
| 20260902020506 | 24 | 63 | 1.6 | 3.2 | 0.00 | 0.00 | 0.00 | 83 | 1009.9 |
| 20260902020006 | 24 | 63 | 0.0 | 0.0 | 0.00 | 0.00 | 0.00 | 83 | 1009.8 |
| 20260902015506 | 23 | 63 | 0.0 | 1.6 | 0.00 | 0.00 | 0.00 | 83 | 1009.9 |
| 20260902015006 | 24 | 63 | 0.0 | 0.0 | 0.00 | 0.00 | 0.00 | 83 | 1009.8 |
| 20260902014506 | 24 | 63 | 0.0 | 0.0 | 0.00 | 0.00 | 0.00 | 83 | 1009.7 |
| 20260902014006 | 24 | 63 | 0.0 | 0.0 | 0.00 | 0.00 | 0.00 | 82 | 1009.6 |
| 20260902013506 | 24 | 63 | 0.0 | 0.0 | 0.00 | 0.00 | 0.00 | 81 | 1009.6 |
| 20260902013006 | 24 | 63 | 0.0 | 0.0 | 0.00 | 0.00 | 0.00 | 82 | 1009.7 |
| 20260902012507 | 24 | 63 | 0.0 | 0.0 | 0.00 | 0.00 | 0.00 | 81 | 1009.7 |
| 20260902012006 | 25 | 63 | 0.0 | 0.0 | 0.00 | 0.00 | 0.00 | 81 | 1009.7 |
| 20260902010506 | 25 | 63 | 0.0 | 0.0 | 0.00 | 0.00 | 0.00 | 80 | 1009.4 |
| 20260902010006 | 25 | 63 | 0.0 | 0.0 | 0.00 | 0.00 | 0.00 | 79 | 1009.5 |
| 20260902005506 | 25 | 63 | 0.0 | 0.0 | 0.00 | 0.00 | 0.00 | 78 | 1009.7 |
| 20260902005006 | 25 | 63 | 0.0 | 0.0 | 0.00 | 0.00 | 0.00 | 78 | 1009.7 |
| 20260902004506 | 25 | 63 | 0.0 | 0.0 | 0.00 | 0.00 | 0.00 | 77 | 1009.5 |
| 20260902004006 | 25 | 63 | 0.0 | 0.0 | 0.00 | 0.00 | 0.00 | 77 | 1009.6 |
| 20260902003506 | 25 | 63 | 0.0 | 0.0 | 0.00 | 0.00 | 0.00 | 77 | 1009.6 |
| 20260902002506 | 26 | 63 | 0.0 | 0.0 | 0.00 | 0.00 | 0.00 | 76 | 1009.6 |
| 20260902002006 | 26 | 63 | 0.0 | 0.0 | 0.00 | 0.00 | 0.00 | 75 | 1009.6 |
| 20260902001506 | 26 | 163 | 0.0 | 0.0 | 0.00 | 0.00 | 0.00 | 74 | 1009.6 |
| 20260902001006 | 26 | 163 | 0.0 | 0.0 | 0.00 | 0.00 | 0.00 | 76 | 1009.7 |
| 20260902000506 | 26 | 163 | 0.0 | 0.0 | 0.00 | 0.00 | 0.00 | 75 | 1009.8 |
| 20260902000006 | 26 | 163 | 0.0 | 0.0 | 0.00 | 0.00 | 0.00 | 74 | 1009.7 |
| 20260901235506 | 26 | 163 | 0.0 | 0.0 | 0.00 | 0.00 | 0.00 | 74 | 1009.6 |
| 20260901235006 | 26 | 163 | 0.0 | 0.0 | 0.00 | 0.00 | 0.00 | 75 | 1009.6 |
| 20260901234506 | 27 | 163 | 0.0 | 0.0 | 0.00 | 0.00 | 0.00 | 75 | 1009.7 |
| 20260901234006 | 27 | 163 | 0.0 | 0.0 | 0.00 | 0.00 | 0.00 | 74 | 1009.7 |
| 20260901233506 | 27 | 163 | 0.0 | 0.0 | 0.00 | 0.00 | 0.00 | 74 | 1009.7 |
| 20260901233007 | 27 | 163 | 0.0 | 0.0 | 0.00 | 0.00 | 0.00 | 74 | 1009.7 |
| 20260901232506 | 27 | 163 | 0.0 | 0.0 | 0.00 | 0.00 | 0.00 | 73 | 1009.7 |
| 20260901232006 | 27 | 163 | 0.0 | 0.0 | 0.00 | 0.00 | 0.00 | 72 | 1009.6 |
| 20260901231506 | 27 | 163 | 0.0 | 0.0 | 0.00 | 0.00 | 0.00 | 72 | 1009.6 |
| 20260901231007 | 27 | 163 | 0.0 | 0.0 | 0.00 | 0.00 | 0.00 | 73 | 1009.5 |
| 20260901230506 | 27 | 163 | 0.0 | 0.0 | 0.00 | 0.00 | 0.00 | 71 | 1009.4 |
| 20260901230006 | 27 | 163 | 0.0 | 0.0 | 0.00 | 0.00 | 0.00 | 69 | 1009.4 |
| 20260901225506 | 27 | 163 | 0.0 | 0.0 | 0.00 | 0.00 | 0.00 | 70 | 1009.4 |
| 20260901224506 | 27 | 163 | 0.0 | 0.0 | 0.00 | 0.00 | 0.00 | 72 | 1009.3 |
| 20260901224007 | 27 | 163 | 0.0 | 0.0 | 0.00 | 0.00 | 0.00 | 71 | 1009.4 |
| 20260901223507 | 27 | 163 | 0.0 | 0.0 | 0.00 | 0.00 | 0.00 | 71 | 1009.5 |
| 20260901222505 | 27 | 163 | 0.0 | 3.2 | 0.00 | 0.00 | 0.00 | 70 | 1009.5 |
| 20260901222006 | 28 | 163 | 1.6 | 3.2 | 0.00 | 0.00 | 0.00 | 69 | 1009.5 |
| 20260901221506 | 28 | 163 | 3.2 | 8.0 | 0.00 | 0.00 | 0.00 | 67 | 1009.5 |
| 20260901220506 | 28 | 163 | 0.0 | 1.6 | 0.00 | 0.00 | 0.00 | 68 | 1009.8 |
| 20260901220006 | 28 | 163 | 0.0 | 0.0 | 0.00 | 0.00 | 0.00 | 69 | 1010.0 |
| 20260901215505 | 28 | 163 | 0.0 | 0.0 | 0.00 | 0.00 | 0.00 | 66 | 1009.8 |
| 20260901215006 | 28 | 163 | 0.0 | 0.0 | 0.00 | 0.00 | 0.00 | 66 | 1009.8 |
| 20260901214506 | 28 | 163 | 0.0 | 0.0 | 0.00 | 0.00 | 0.00 | 66 | 1009.8 |
| 20260901214006 | 28 | 163 | 0.0 | 1.6 | 0.00 | 0.00 | 0.00 | 67 | 1009.8 |
| 20260901213506 | 28 | 163 | 0.0 | 0.0 | 0.00 | 0.00 | 0.00 | 63 | 1009.6 |
| 20260901213007 | 29 | 163 | 0.0 | 0.0 | 0.00 | 0.00 | 0.00 | 64 | 1009.6 |
| 20260901212506 | 29 | 163 | 0.0 | 0.0 | 0.00 | 0.00 | 0.00 | 63 | 1009.2 |
| 20260901211006 | 29 | 163 | 0.0 | 1.6 | 0.00 | 0.00 | 0.00 | 61 | 1009.6 |
| 20260901210506 | 29 | 163 | 0.0 | 0.0 | 0.00 | 0.00 | 0.00 | 59 | 1009.6 |
| 20260901205506 | 30 | 163 | 0.0 | 0.0 | 0.00 | 0.00 | 0.00 | 58 | 1009.4 |
| 20260901205006 | 30 | 163 | 0.0 | 1.6 | 0.00 | 0.00 | 0.00 | 55 | 1009.6 |
| 20260901204007 | 30 | 163 | 0.0 | 0.0 | 0.00 | 0.00 | 0.00 | 57 | 1009.3 |
| 20260901203506 | 30 | 163 | 0.0 | 1.6 | 0.00 | 0.00 | 0.00 | 57 | 1009.4 |
| 20260901203006 | 30 | 163 | 1.6 | 3.2 | 0.00 | 0.00 | 0.00 | 51 | 1009.4 |
| 20260901202006 | 30 | 166 | 0.0 | 4.8 | 0.00 | 0.00 | 0.00 | 54 | 1010.2 |
| 20260901201506 | 30 | 166 | 0.0 | 9.7 | 0.00 | 0.00 | 0.00 | 51 | 1010.0 |
| 20260901201007 | 30 | 166 | 3.2 | 9.7 | 0.00 | 0.00 | 0.00 | 50 | 1010.3 |
| 20260901200506 | 30 | 166 | 1.6 | 8.0 | 0.00 | 0.00 | 0.00 | 50 | 1010.4 |
| 20260901200006 | 30 | 166 | 3.2 | 8.0 | 0.00 | 0.00 | 0.00 | 50 | 1010.5 |
| 20260901195506 | 30 | 166 | 3.2 | 8.0 | 0.00 | 0.00 | 0.00 | 50 | 1010.5 |
| 20260901195007 | 30 | 162 | 1.6 | 8.0 | 0.00 | 0.00 | 0.00 | 53 | 1010.5 |
| 20260901194506 | 30 | 166 | 3.2 | 8.0 | 0.00 | 0.00 | 0.00 | 53 | 1010.4 |
| 20260901194006 | 30 | 115 | 1.6 | 3.2 | 0.00 | 0.00 | 0.00 | 55 | 1010.4 |
| 20260901193506 | 30 | 115 | 0.0 | 3.2 | 0.00 | 0.00 | 0.00 | 55 | 1010.4 |
| 20260901193006 | 30 | 115 | 3.2 | 4.8 | 0.00 | 0.00 | 0.00 | 52 | 1010.4 |
| 20260901192506 | 30 | 64 | 1.6 | 3.2 | 0.00 | 0.00 | 0.00 | 53 | 1010.3 |
| 20260901192006 | 30 | 42 | 0.0 | 3.2 | 0.00 | 0.00 | 0.00 | 57 | 1010.2 |
| 20260901191006 | 30 | 42 | 1.6 | 3.2 | 0.00 | 0.00 | 0.00 | 55 | 1010.4 |
| 20260901190506 | 30 | 42 | 0.0 | 0.0 | 0.00 | 0.00 | 0.00 | 57 | 1010.4 |
| 20260901190005 | 30 | 42 | 0.0 | 0.0 | 0.00 | 0.00 | 0.00 | 58 | 1010.4 |
| 20260901185506 | 30 | 42 | 0.0 | 0.0 | 0.00 | 0.00 | 0.00 | 58 | 1010.3 |
| 20260901185006 | 30 | 42 | 0.0 | 0.0 | 0.00 | 0.00 | 0.00 | 52 | 1010.4 |
| 20260901184506 | 30 | 42 | 0.0 | 0.0 | 0.00 | 0.00 | 0.00 | 53 | 1010.6 |
| 20260901184006 | 30 | 42 | 0.0 | 3.2 | 0.00 | 0.00 | 0.00 | 49 | 1010.7 |
| 20260901183506 | 30 | 42 | 0.0 | 1.6 | 0.00 | 0.00 | 0.00 | 49 | 1010.8 |
| 20260901183006 | 30 | 42 | 0.0 | 4.8 | 0.00 | 0.00 | 0.00 | 50 | 1010.8 |
| 20260901182506 | 30 | 42 | 1.6 | 4.8 | 0.00 | 0.00 | 0.00 | 50 | 1010.9 |
| 20260901182006 | 30 | 42 | 0.0 | 3.2 | 0.00 | 0.00 | 0.00 | 49 | 1011.0 |
| 20260901180506 | 30 | 42 | 0.0 | 1.6 | 0.00 | 0.00 | 0.00 | 55 | 1011.2 |